Weather in Vyazovka

Russia / Ulyanovsk Oblast     52°51′18″N   48°22′21″E
temp.,
°C
wind,
m/s
gust,
m/s
humid.,
%
clouds,
%
prec.,
mm/h
press.,
hPa
HPBL,
m
28 january, thu
thu2801:00−5sse61196100 0.0 1022409
04:00−7sse51096100 0.1 1021290
07:00−9se4896100 0.0 1020263
10:00−9se51097100 0.1 1019302
13:00−7se5995100 0.1 1018368
16:00−7se4995100 0.1 1017340
19:00−10se4898100 0.0 1017152
22:00−8se3797100 0.1 1016246
29 january, fri
fri2901:00−7ese3798100 0.1 1014252
04:00−6ese4798100 0.1 1013268
07:00−5se4797100 0.1 1012263
10:00−5se4697100 0.2 1012249
13:00−4se3597100 0.1 1011298
16:00−3se3497100 0.2 1010248
19:00−4ese1298100 0.3 100929
22:00−4sw2497100 1.0 100993
30 january, sat
sat3001:00−5wsw3494100 0.6 100975
04:00−8sw239766 0.6 100922
07:00−8s339664 0.0 100930
10:00−7sse499760 0.0 1008211
13:00−1s81492100 0.0 1006727
16:000ssw81595100 0.4 1006990
19:000sw51190100 0.3 1009514
22:00−4sw3492100 0.3 101175
31 january, sun
sun3101:00−5ssw2392100 0.0 101222
04:000s5998100 0.1 1012372
07:00−1s5996100 0.1 1012308
10:00−5sse41093100 0.1 1012231
13:00−3sse61489100 0.0 1012433
16:00−3sse71685100 0.0 1009501
19:00−4sse91887100 0.0 1006617
22:00−1s101897100 2.0 1003788
1 february, mon
mon101:00+1sw91598100 1.5 1002910
04:00−4sw7168788 1.6 1005579
07:00−5wsw7148684 0.0 1008609
10:00−6wsw7148879 0.0 1013546
13:00−5w6128651 0.0 1016569
16:00−6wsw598826 0.0 1018298
19:00−9wsw479232 0.0 1021114
22:00−11sw129457 0.0 102221